This demonstration page uses our WeatherBlox Daily Observations layout. Learn more.

Left ArrowRight Arrow

31.31129, -92.44514

Hourly Observations for December 19, 2015

Temp ( °F °C ) Dew Point ( °F °C ) Humidity (%) Winds ( mph kmh ) Pressure ( in mb ) Visibility ( mi km ) Precip ( " mm )
12:53 am 00:53 Clear 36 2.2 34 1.1 93 93 Calm 30.43 1030 10 16 0.00 0.00
1:53 am 01:53 Clear 34 1.1 33 0.6 97 97 Calm 30.44 1031 10 16 0.00 0.00
2:53 am 02:53 Clear 35 1.7 33 0.6 93 93 Calm 30.46 1031 10 16 0.00 0.00
3:53 am 03:53 Clear 34 1.1 33 0.6 97 97 Calm 30.47 1032 9 14 0.00 0.00
4:53 am 04:53 Clear 33 0.6 32 0 96 96 Calm 30.48 1032 9 14 0.00 0.00
5:53 am 05:53 Clear 32 0 31 -0.6 96 96 Calm 30.50 1033 9 14 0.00 0.00
6:40 am 06:40 Mostly Clear 32 0 30 -1.1 92 92 Calm 30.50 1033 8 13 0.00 0.00
6:53 am 06:53 Clear 32 0 31 -0.6 96 96 Calm 30.51 1033 8 13 0.00 0.00
7:53 am 07:53 Sunny 33 0.6 33 0.6 100 100 SE 3 6 30.54 1034 8 13 0.00 0.00
8:53 am 08:53 Sunny 41 5 38 3.3 89 89 SE 7 11 30.55 1034 10 16 0.00 0.00
9:53 am 09:53 Sunny 48 8.9 37 2.8 66 66 ESE 7 11 30.57 1035 10 16 0.00 0.00
10:53 am 10:53 Sunny 52 11.1 35 1.7 53 53 ESE 6 9 30.56 1035 10 16 0.00 0.00
11:53 am 11:53 Sunny 55 12.8 31 -0.6 40 40 ESE 5 7 30.53 1034 10 16 0.00 0.00
12:53 pm 12:53 Sunny 57 13.9 27 -2.8 32 32 E 6 9 30.49 1033 10 16 0.00 0.00
1:53 pm 13:53 Sunny 60 15.6 25 -3.9 26 26 SE 9 15 30.46 1032 10 16 0.00 0.00
2:53 pm 14:53 Sunny 60 15.6 21 -6.1 22 22 ESE 6 9 30.46 1031 10 16 0.00 0.00
3:53 pm 15:53 Sunny 59 15 21 -6.1 23 23 SE 9 15 30.44 1031 10 16 0.00 0.00
4:53 pm 16:53 Sunny 53 11.7 28 -2.2 38 38 ESE 6 9 30.45 1031 10 16 0.00 0.00
5:53 pm 17:53 Clear 50 10 28 -2.2 43 43 ESE 6 9 30.45 1031 10 16 0.00 0.00
6:53 pm 18:53 Clear 49 9.4 26 -3.3 41 41 ESE 3 6 30.45 1031 10 16 0.00 0.00
7:53 pm 19:53 Clear 45 7.2 26 -3.3 48 48 Calm 30.46 1032 10 16 0.00 0.00
8:53 pm 20:53 Clear 42 5.6 30 -1.1 62 62 Calm 30.47 1032 10 16 0.00 0.00
9:53 pm 21:53 Clear 41 5 30 -1.1 65 65 Calm 30.46 1031 10 16 0.00 0.00
10:53 pm 22:53 Clear 40 4.4 35 1.7 83 83 SE 3 6 30.45 1031 10 16 0.00 0.00
11:53 pm 23:53 Clear 39 3.9 36 2.2 89 89 S 5 7 30.45 1031 10 16 0.00 0.00

Powered by AerisWeather